Regional Weather Roundup
Issued by NWS

Home | Current Version | Previous Version | Graphics & Text | Print | Product List | Glossary On
Versions: 1 2 3 4 5 6 7 8 9 10 11 12 13 14 15 16 17 18 19 20 21 22 23 24 25 26 27 28 29 30 31 32 33 34 35 36 37 38 39 40 41 42 43 44 45 46 47 48 49 50
000
ASUS43 KIND 230509
RWRIN

WEATHER ROUNDUP FOR INDIANA
NATIONAL WEATHER SERVICE INDIANAPOLIS IN
100 AM EDT THU OCT 23 2014

NOTE: "FAIR" INDICATES FEW OR NO CLOUDS BELOW 12,000 FEET WITH NO
SIGNIFICANT WEATHER AND/OR OBSTRUCTIONS TO VISIBILITY.

* - STATION DOES NOT REPORT WEATHER SUCH AS PRECIPITATION OR FOG.

+ - STATION NOT QUALITY CONTROLLED BY THE NATIONAL WEATHER SERVICE.
    USE DATA WITH CAUTION...ESPECIALLY DEWPOINT AND RELATIVE
    HUMIDITY OBSERVATIONS.

INZ001>003-010>013-019-020-230600-
NORTHWEST INDIANA

CITY           SKY/WX    TMP DP  RH WIND       PRES   REMARKS
GARY /AIRPORT/ CLEAR     41  40  95 SE3       30.28F
KNOX *+          N/A     33  31  96 CALM      30.28S VSB 3/4
LA PORTE +       N/A     37  37 100 CALM      30.29F FOG
MICHIGAN CITY+ CLEAR     37  37 100 CALM      30.29S
MONTICELLO +   CLEAR     41  39  92 CALM      30.27S
RENSSELAER +   CLEAR     37  37 100 E5        30.28F
VALPARAISO     CLEAR     37  35  92 NE3       30.29S

$$

LMZ046-743>745-230600-
SOUTHERN LAKE MICHIGAN

STATION/POSITION TIME  TEMP WIND        PRES
                       AIR  DIR/SP/G
                 (UTC) (F)  (DEG/KT/KT) (MB)
MICHIGAN CITY    0500   41  120/  9/ 11   N/A

$$

INZ004-005-014>016-021>024-230600-
NORTH CENTRAL INDIANA

CITY           SKY/WX    TMP DP  RH WIND       PRES   REMARKS
GOSHEN         CLEAR     35  33  92 E3        30.28F FOG
LOGANSPORT +   CLEAR     36  34  93 E3        30.29S
PERU/GRISSOM   CLEAR     39  39 100 CALM      30.28S
ROCHESTER +    CLEAR     39  39 100 CALM      30.29S FOG
SOUTH BEND     CLEAR     40  36  86 CALM      30.29F
WARSAW +       CLEAR     34  34 100 CALM      30.28F FOG

$$

INZ006>009-017-018-025>027-230600-
NORTHEAST INDIANA

CITY           SKY/WX    TMP DP  RH WIND       PRES   REMARKS
ANGOLA *+      CLOUDY    30  16  55 CALM      30.28S VSB 1/2
AUBURN +       CLEAR     34  32  93 CALM      30.30R FOG
FORT WAYNE     CLEAR     35  35 100 CALM      30.29F
HUNTINGTON +   CLEAR     36  36  99 CALM      30.28F FOG

$$

INZ028-029-035-036-043>045-051>053-230600-
WEST CENTRAL INDIANA

CITY           SKY/WX    TMP DP  RH WIND       PRES   REMARKS
GREENCASTLE +  CLEAR     39  37  93 CALM      30.27R FOG
LAFAYETTE      CLEAR     41  38  89 E3        30.27S
TERRE HAUTE    CLEAR     38  37  97 CALM      30.26S

$$

INZ030>032-037>040-046>048-054>057-064-065-230600-
CENTRAL INDIANA

CITY           SKY/WX    TMP DP  RH WIND       PRES   REMARKS
CP ATTERBURY + CLEAR     36  34  93 CALM      30.27S
FRANKFORT +    CLEAR    N/A N/A N/A E5        30.28S
INDIANAPOLIS   CLEAR     43  38  82 E6        30.26R
-EAGLE CREEK   CLEAR     41  38  89 CALM      30.26S
KOKOMO *+      CLEAR     37  34  87 CALM      30.29S
MARION +       CLEAR     37  36  96 E3        30.28S FOG
MT COMFORT *+  CLEAR     39  39 100 CALM      30.27S
SHELBYVILLE    CLEAR     39  36  89 E6        30.26F
ZIONSVILLE +   CLEAR     38  35  87 CALM      30.28R FOG

$$

INZ033-034-041-042-049-050-058-059-230600-
EAST CENTRAL INDIANA

CITY           SKY/WX    TMP DP  RH WIND       PRES   REMARKS
MUNCIE         CLEAR     38  36  92 CALM      30.27F FOG

$$

INZ060-061-067>069-081>083-085>088-230600-
SOUTHWEST INDIANA

CITY           SKY/WX    TMP DP  RH WIND       PRES   REMARKS
EVANSVILLE     CLEAR     44  41  89 CALM      30.25S
HUNTINGBURG *+ CLEAR     45  37  76 CALM      30.26R
WASHINGTON +   CLEAR     39  38  97 CALM      30.25S

$$

INZ062-063-066-070>080-084-089>092-230600-
SOUTH CENTRAL AND SOUTHEAST INDIANA

CITY           SKY/WX    TMP DP  RH WIND       PRES   REMARKS
BEDFORD +      CLEAR     41  39  93 CALM      30.26
BLOOMINGTON    CLEAR     38  36  92 CALM      30.26S
SEYMOUR +      CLEAR     39  37  93 CALM      30.26

$$




USA.gov is the U.S. government's official web portal to all federal, state and local government web resources and services.